Simultaneous Nadir Overpasses (SNOs) Predictions

Prediction of SNOs between GOES-15 and METOP-C Satellite Orbit:

Table of predicted SNOs for the next 14.0 days since TLE Epoch: 5/27/2023
Index Date Time (GOES-15) GOES-15 Lat,Lon METOP-C Lat,Lon Distance(km) Time Diff (sec)
1 05/27/2023 19:32:30 -0.28,-153.48 -0.82,-151.03 278.99 80
2 05/29/2023 07:54:12 0.26,-154.13 -0.06,-155.66 173.58 80
3 05/30/2023 07:30:53 0.28,-154.55 1.16,-150.68 441.57 80
4 05/31/2023 19:52:25 -0.26,-155.21 -0.28,-155.27 6.56 80
5 06/02/2023 08:11:26 0.25,-155.85 -0.66,-159.88 459.72 80
6 06/03/2023 07:48:08 0.27,-156.27 0.56,-154.91 154.32 80
7 06/04/2023 20:09:39 -0.25,-156.90 0.31,-159.49 295.22 80
8 06/05/2023 19:46:20 -0.27,-157.31 -0.92,-154.52 318.21 80
9 06/07/2023 08:08:02 0.26,-157.93 -0.01,-159.14 137.44 80
10 06/08/2023 07:44:43 0.28,-158.34 1.22,-154.17 475.34 80
11 06/09/2023 20:03:34 -0.27,-158.96 -0.29,-158.74 24.56 80
